CAPE
0 124 909 1317 1406 1650 1874 1781 1744 1644 1602 1616 1693 1722 1567 1413 1466 1940 2131 2066 2043 1945 2099 2215 2261 2120 2244 2136 1966 2091 2080 1877 1739 1574 1485 1381 1505 1318 1288 1188 1118 951 1112
0 394 1126 1446 1428 1582 1512 1478 1595 1588 1531 1576 2110 1646 1451 1411 1345 1311 1803 2065 2019 1967 2052 2117 2146 2301 2071 2078 2081 2131 2089 1672 1874 1790 1612 1638 1397 965 990 1169 1234 1006 689
0 682 1323 1581 1614 1802 1838 1440 1779 1604 1573 1952 1939 1673 1807 1778 1252 1307 1275 1584 1961 1926 1922 1964 2041 2238 2176 1762 1448 1624 1999 2040 1993 1792 1535 1057 1190 760 930 563 641 865 1015
107 894 1375 1362 1511 1853 2018 1850 1947 1759 1626 1819 1975 1754 1919 1830 1152 1336 1375 1261 1287 1838 1401 1679 1936 2249 1890 1380 1394 1385 1773 1851 1657 1350 905 998 703 1181 1221 944 1003 1142 1053
468 1044 1184 1185 1864 1924 1862 1896 1873 1594 1764 1782 1764 1775 1826 1686 1216 968 1199 1833 1529 1259 1600 1821 1893 1751 1427 1431 1380 1279 1414 1834 1336 1048 888 714 772 1114 873 629 1060 1150 270
616 822 1375 1301 1286 1635 1952 2081 1857 1581 1791 1715 1433 1746 1581 1749 1594 877 1250 1725 1456 1610 1744 1553 1481 1508 1122 1180 1220 1219 1425 1597 1097 1022 1170 1284 1087 1177 568 1443 1041 848 557
447 809 1228 1418 1656 1702 1683 1744 1765 1780 1757 1620 1666 1746 1593 1589 1548 1481 1238 1398 1415 1276 1099 1151 1312 1228 1262 1512 1552 1348 1661 1646 1073 1106 1325 1123 954 1109 788 1296 812 1116 1277
468 823 1458 1776 1631 1975 1851 1804 1759 1737 1820 1436 1834 1711 1518 1631 1484 1385 1457 1347 1435 1443 1310 1311 803 929 1250 1496 1341 1512 1647 1492 1110 1264 1070 654 556 626 1330 1054 287 191 497
607 1162 1493 1552 1687 1698 1692 1736 1799 1793 1888 1951 1569 1604 1575 1410 1630 1537 1564 1423 1374 1348 1259 1162 952 1180 1199 1343 1244 1491 1673 1072 871 1219 1001 563 771 438 453 167 585 483 461
721 990 1167 1570 1548 1481 1673 1745 1709 1798 1989 1862 1766 1753 1543 1482 1328 1511 1530 1553 1437 1327 1283 1136 1037 636 920 1201 1242 1508 1432 1167 984 1295 900 627 993 1458 1320 1544 1495 1401 1096
551 757 792 991 917 830 1295 1642 1760 1938 1891 1819 1558 1695 1378 1429 1353 1244 1365 1517 1395 1354 1388 1250 619 615 981 1051 1487 1885 1526 850 1061 1121 1163 818 1385 1706 1637 1575 1112 899 1068
270 482 600 457 341 1044 1194 1617 1588 1542 1579 1459 1369 1029 919 1111 1211 1262 1444 1468 1380 1426 1412 954 909 161 375 525 1081 1713 974 900 883 1014 1127 1403 1540 1298 1232 841 1370 667 284
128 457 428 185 672 1040 1177 1102 1226 1370 1194 1018 832 515 622 967 1176 1367 1403 1300 1241 1339 348 26 197 5 247 700 863 911 791 724 668 1012 1364 1301 1352 1370 1242 1472 765 432 602
65 155 87 202 376 610 857 791 862 868 867 575 130 117 692 566 492 706 859 824 889 659 161 0 75 286 582 671 916 847 660 667 625 795 1275 1289 1326 1269 1201 1267 1079 1107 850
5 83 0 260 335 377 416 546 667 638 710 503 292 397 620 47 86 272 254 270 452 494 127 58 384 521 736 930 914 790 543 494 305 583 1027 1038 1205 1256 1154 1105 1008 769 639
0 20 46 212 314 343 142 224 448 602 780 758 559 537 423 201 108 280 140 64 432 339 87 464 453 558 745 900 616 509 574 350 151 400 298 599 950 1193 1130 764 825 1060 649
0 81 80 224 331 274 125 348 579 679 840 787 721 464 375 223 181 97 306 242 295 8 12 385 358 602 610 588 331 461 458 170 89 253 273 335 763 901 1191 711 454 531 534
0 41 76 264 294 228 210 478 656 658 736 795 610 55 474 628 207 0 213 249 196 0 168 276 286 260 376 280 329 437 471 221 116 62 91 182 360 418 789 625 347 251 316
0 0 89 211 281 311 382 576 622 755 718 637 548 447 314 525 605 470 318 215 176 33 99 339 423 202 126 250 241 402 461 367 264 201 162 171 174 192 168 290 383 470 561
0 0 64 170 261 361 341 483 580 621 667 639 697 434 24 734 916 839 515 369 378 154 90 296 298 211 268 183 343 158 326 376 193 186 142 261 226 249 261 290 327 435 690
0 0 86 148 201 428 329 421 583 682 745 659 681 588 629 986 899 1022 642 639 832 512 671 373 320 189 437 96 53 27 135 223 261 145 173 266 318 358 407 370 372 345 410
15 0 91 131 128 370 208 297 566 531 585 521 609 701 1122 1006 1029 848 751 580 583 498 662 588 472 417 466 75 78 26 11 0 0 19 46 140 295 361 432 462 458 451 416
26 0 79 97 90 153 167 72 320 344 441 473 583 648 907 1172 993 983 799 410 276 555 427 460 434 324 31 27 16 131 4 0 0 0 29 73 124 103 216 422 458 509 471
38 0 0 41 55 33 49 18 103 464 347 481 472 703 905 1250 992 742 858 830 328 534 561 432 489 249 32 0 166 9 127 158 31 34 20 25 64 113 101 116 384 527 557
40 18 0 0 0 0 0 0 0 300 379 438 386 655 998 1132 1154 638 873 814 909 665 372 575 749 583 430 214 141 4 3 103 42 106 250 312 225 248 156 110 133 304 350
9 39 24 0 0 0 0 0 0 165 370 254 386 451 741 1025 1099 961 802 813 761 757 684 692 940 705 749 928 790 173 52 230 239 172 160 224 340 339 343 305 238 193 194
CIN
-0 -68 -17 -3 -1 -0 -0 -0 -0 -2 -7 -7 -5 -1 -7 -20 -25 -4 -0 -0 -0 -0 -0 -0 -0 -0 -0 -0 -0 -0 -0 -0 -0 -0 -0 -0 -0 -0 -0 -0 -0 -1 -0
-0 -53 -11 -1 -2 -2 -9 -6 -4 -5 -11 -7 -0 -4 -9 -9 -13 -9 -0 -0 -0 -0 -0 -0 -0 -0 -0 -0 -0 -0 -0 -3 -0 -0 -0 -0 -0 -0 -0 -0 -0 -0 -0
-0 -35 -2 -0 -0 -0 -2 -12 -2 -3 -2 -0 -0 -0 -0 -0 -12 -8 -3 -0 -0 -0 -0 -0 -0 -0 -0 -1 -5 -4 -0 -0 -0 -0 -1 -3 -0 -0 -0 -0 -0 -0 -0
-80 -27 -3 -5 -9 -2 -0 -0 -0 -0 -0 -0 -0 -0 -0 -0 -15 -8 -2 -0 -0 -0 -4 -0 -0 -0 -0 -7 -5 -7 -0 -0 -0 -1 -8 -2 -3 -0 -0 -0 -0 -0 -0
-74 -19 -13 -13 -0 -0 -0 -0 -0 -0 -0 -0 -0 -0 -0 -0 -4 -18 -2 -0 -0 -0 -0 -0 -0 -0 -4 -5 -4 -11 -8 -0 -2 -12 -13 -13 -10 -0 -0 -11 -0 -0 -50
-52 -28 -0 -3 -0 -0 -0 -0 -0 -0 -0 -0 -0 -0 -1 -0 -0 -11 -0 -0 -0 -0 -0 -0 -0 -7 -9 -13 -24 -24 -16 -5 -21 -26 -12 -1 -2 -0 -17 -0 -0 -0 -10
-66 -28 -1 -0 -0 -0 -0 -0 -0 -0 -0 -0 -0 -0 -0 -0 -0 -0 -0 -0 -0 -0 -0 -0 -5 -9 -10 -12 -13 -16 -6 -4 -26 -23 -6 -9 -8 -0 -7 -0 -1 -0 -0
-81 -27 -1 -0 -0 -0 -0 -0 -0 -0 -0 -0 -0 -0 -0 -0 -0 -0 -0 -0 -0 -0 -0 -0 -17 -18 -19 -17 -22 -14 -9 -13 -26 -20 -27 -44 -32 -20 -0 -3 -62 -80 -23
-48 -8 -0 -0 -0 -0 -0 -0 -0 -0 -0 -0 -0 -0 -0 -0 -0 -0 -0 -0 -0 -0 -0 -5 -12 -11 -18 -15 -22 -17 -15 -31 -46 -23 -28 -60 -25 -53 -51 -95 -25 -31 -21
-31 -18 -4 -1 -2 -1 -0 -0 -0 -0 -0 -0 -0 -0 -0 -0 -0 -0 -0 -0 -0 -0 -0 -8 -18 -28 -22 -22 -25 -18 -23 -29 -43 -18 -34 -51 -12 -0 -0 -0 -0 -0 -0
-32 -25 -22 -5 -16 -25 -1 -0 -0 -0 -0 -0 -0 -0 -3 -2 -1 -2 -3 -0 -7 -11 -4 -12 -22 -26 -20 -25 -22 -15 -21 -53 -28 -20 -12 -31 -3 -0 -0 -0 -0 -1 -0
-84 -54 -47 -64 -96 -15 -0 -1 -1 -3 -1 -2 -7 -26 -30 -16 -6 -4 -4 -8 -10 -5 -13 -18 -29 -87 -64 -68 -40 -27 -56 -52 -47 -25 -13 -3 -0 -0 -1 -8 -0 -27 -66
-143 -71 -76 -118 -55 -20 -10 -19 -21 -12 -18 -24 -52 -63 -71 -31 -16 -3 -5 -30 -30 -34 -99 -208 -94 -14 -92 -76 -72 -82 -74 -65 -62 -33 -4 -3 -1 -1 -0 -0 -25 -53 -33
-138 -124 -157 -117 -97 -66 -41 -56 -57 -43 -43 -76 -153 -178 -70 -78 -79 -52 -40 -70 -75 -91 -118 -0 -137 -80 -76 -100 -79 -76 -85 -79 -81 -72 -29 -14 -10 -8 -4 -0 -2 -2 -15
-47 -137 -0 -116 -102 -105 -82 -78 -76 -66 -55 -81 -106 -102 -81 -150 -125 -93 -96 -101 -107 -108 -130 -149 -77 -65 -60 -79 -71 -71 -85 -102 -157 -123 -69 -52 -27 -8 -9 -16 -16 -28 -37
-0 -102 -154 -119 -102 -104 -129 -105 -85 -68 -57 -64 -87 -85 -100 -100 -110 -79 -97 -127 -86 -123 -164 -94 -80 -58 -58 -78 -70 -74 -74 -127 -175 -144 -160 -112 -60 -29 -23 -54 -29 -6 -48
-0 -109 -121 -108 -98 -99 -114 -79 -72 -63 -53 -57 -66 -98 -96 -106 -108 -136 -87 -85 -94 -241 -262 -110 -99 -70 -59 -80 -74 -79 -81 -152 -199 -154 -156 -149 -87 -56 -19 -68 -119 -104 -102
-0 -106 -108 -95 -91 -91 -75 -62 -59 -59 -52 -50 -63 -170 -78 -81 -110 -0 -103 -93 -122 -0 -135 -115 -97 -64 -59 -76 -78 -77 -73 -114 -171 -234 -201 -173 -138 -135 -81 -106 -175 -214 -209
-0 -0 -94 -121 -91 -73 -75 -78 -67 -48 -53 -49 -62 -81 -101 -70 -68 -77 -103 -106 -112 -149 -135 -86 -75 -92 -87 -71 -85 -73 -71 -82 -105 -141 -145 -166 -194 -199 -243 -220 -196 -211 -197
-0 -0 -112 -98 -91 -61 -71 -78 -73 -55 -57 -59 -50 -64 -22 -55 -47 -46 -65 -77 -80 -117 -144 -102 -93 -121 -102 -108 -66 -105 -83 -82 -135 -153 -168 -145 -190 -200 -225 -227 -245 -248 -175
-0 -0 -121 -108 -90 -51 -60 -52 -42 -27 -47 -53 -51 -49 -54 -27 -32 -41 -50 -64 -67 -55 -49 -83 -76 -96 -81 -159 -112 -128 -96 -111 -116 -163 -177 -178 -191 -191 -211 -232 -241 -303 -290
-87 -0 -126 -120 -121 -59 -78 -62 -41 -42 -54 -57 -54 -47 -34 -29 -34 -35 -45 -55 -53 -57 -55 -57 -52 -66 -73 -152 -117 -143 -40 -0 -0 -158 -239 -234 -205 -231 -210 -218 -251 -278 -302
-185 -0 -134 -147 -134 -99 -81 -116 -59 -61 -69 -44 -51 -46 -36 -26 -29 -33 -37 -47 -62 -51 -58 -76 -58 -62 -95 -161 -156 -99 -38 -0 -0 -0 -241 -259 -265 -294 -289 -248 -262 -276 -299
-229 -0 -0 -162 -173 -156 -144 -128 -77 -32 -34 -40 -45 -43 -32 -32 -30 -46 -33 -31 -54 -49 -43 -51 -58 -65 -63 -0 -97 -37 -171 -145 -152 -161 -258 -269 -293 -282 -329 -340 -281 -267 -281
-250 -266 -0 -0 -0 -0 -0 -0 -0 -49 -46 -42 -43 -30 -32 -30 -25 -38 -38 -31 -35 -44 -56 -46 -43 -48 -55 -58 -80 -6 -93 -160 -234 -168 -126 -155 -235 -274 -337 -342 -334 -290 -304
-217 -272 -238 -0 -0 -0 -0 -0 -0 -75 -40 -47 -37 -32 -32 -31 -25 -36 -42 -46 -41 -45 -40 -49 -47 -48 -49 -58 -72 -117 -79 -95 -110 -142 -169 -183 -175 -198 -241 -265 -291 -336 -341
Wind_Speed
35 34 31 31 31 30 29 28 28 27 26 26 24 23 20 17 14 14 16 23 25 24 7 3 20 25 25 27 25 15 5 18 22 28 29 28 28 29 30 30 30 30 30
36 34 32 31 30 29 28 27 26 25 25 25 24 22 20 16 14 13 16 22 24 24 4 3 15 20 24 27 15 14 1 5 21 29 29 29 29 29 29 30 30 28 30
34 33 31 30 28 28 27 26 25 25 25 26 26 25 24 22 19 17 17 22 24 24 25 10 12 13 12 2 0 9 11 17 29 28 28 27 28 29 29 29 28 29 29
32 32 30 28 27 27 26 25 25 26 26 25 25 25 23 21 18 17 12 7 25 25 25 10 14 8 8 4 21 20 22 28 29 28 26 25 26 29 28 30 30 30 30
30 31 29 27 27 27 26 26 26 26 26 26 25 25 24 23 21 16 11 6 17 22 16 12 10 8 10 12 17 21 27 27 27 26 27 20 24 28 27 28 28 29 28
30 30 28 27 27 26 25 26 26 26 26 26 26 25 26 27 28 28 23 13 22 23 13 11 14 17 19 17 17 18 28 27 27 27 27 25 27 28 28 27 28 27 28
30 30 28 28 27 26 26 26 27 27 27 26 26 27 28 29 28 27 25 23 22 27 4 14 20 18 15 15 20 26 28 26 25 27 27 26 25 27 27 27 27 26 26
29 31 29 28 28 26 26 26 26 26 26 26 26 27 28 29 28 28 27 27 25 26 22 19 19 16 12 10 4 27 25 25 26 26 26 25 26 26 26 26 25 25 25
28 30 28 28 27 26 27 27 26 25 26 26 26 26 27 27 28 28 28 28 28 24 19 17 16 14 12 8 21 24 24 24 26 25 24 24 24 25 25 25 25 24 24
28 28 28 28 27 27 27 26 26 25 25 25 26 26 26 26 27 27 27 28 27 25 21 20 19 20 16 11 24 24 25 25 25 23 23 23 25 25 24 23 23 23 22
28 28 28 28 27 27 27 26 26 26 25 24 26 26 26 25 26 26 26 27 28 28 22 22 25 24 21 14 22 25 24 24 22 21 23 23 24 24 24 23 22 21 20
29 29 28 28 27 27 27 26 26 26 25 26 25 25 25 24 25 25 26 26 27 26 13 9 8 16 20 17 18 23 23 23 24 23 23 24 24 23 22 21 22 20 20
29 29 28 28 28 28 27 26 26 26 25 26 24 24 24 23 20 22 23 23 22 25 16 9 20 23 19 17 20 23 23 23 23 22 21 23 23 22 21 21 20 20 19
29 29 29 29 28 28 28 27 26 26 26 25 25 24 23 23 23 16 4 21 23 24 19 18 22 21 20 19 19 21 23 23 23 22 23 23 22 21 21 20 20 19 18
30 29 29 30 30 29 29 28 26 26 25 24 23 24 22 22 23 24 13 21 19 21 22 20 22 22 20 18 18 23 23 24 23 23 22 22 21 21 20 20 19 19 18
31 30 30 32 31 29 28 28 26 25 24 23 22 21 22 21 23 23 24 24 23 22 22 21 21 21 19 15 18 24 25 24 23 23 21 21 21 20 20 19 19 18 18
32 32 31 33 31 29 28 28 26 25 23 22 21 21 22 23 22 23 23 25 24 23 21 20 20 18 18 17 20 24 24 23 22 21 20 21 20 19 19 19 18 18 17
32 33 33 33 31 28 27 27 26 25 23 22 22 21 22 22 23 23 21 24 25 24 21 22 21 20 19 19 19 24 23 22 22 21 21 20 19 19 19 19 18 18 17
32 31 33 32 30 27 26 27 28 25 23 22 22 21 22 22 22 23 23 24 26 25 23 21 22 23 21 21 21 22 22 22 21 20 21 20 19 19 18 18 18 17 16
33 31 30 32 30 27 25 27 27 26 25 24 23 22 23 23 21 23 23 24 26 26 24 23 23 22 20 22 20 18 21 20 21 20 19 19 19 19 18 18 17 16 16
33 32 29 30 32 26 19 26 27 27 26 25 23 23 24 23 22 24 24 23 25 25 25 25 22 22 20 21 20 18 19 20 21 20 20 20 19 19 18 18 17 15 14
29 35 31 30 31 28 22 27 27 28 26 25 24 24 23 23 23 24 25 23 24 24 25 25 23 22 20 22 21 20 18 18 19 20 21 21 20 19 18 18 17 16 14
24 34 34 30 31 30 23 32 25 27 25 26 25 24 23 23 23 23 25 24 25 25 26 25 24 22 23 21 21 20 19 19 18 18 19 20 20 20 19 18 17 16 14
26 27 34 32 29 32 26 32 32 30 30 28 26 25 23 22 23 23 24 23 24 25 24 24 24 24 23 22 19 20 18 19 19 20 17 18 18 19 19 17 16 14 13
23 22 30 36 30 30 25 29 34 33 31 28 27 26 24 22 23 23 22 22 23 24 24 25 25 24 24 22 20 19 17 18 17 19 18 17 18 19 18 17 14 14 12
23 17 21 30 34 28 26 24 34 34 32 31 29 27 25 23 23 22 22 22 23 23 25 26 25 25 24 22 20 20 19 19 18 18 19 18 18 16 15 15 14 13 11
Wind_Direction
147 147 154 148 139 121 108 106 102 96 93 93 87 79 71 57 42 42 52 88 100 121 224 252 161 142 136 125 137 163 25 48 57 76 87 115 116 108 101 100 103 99 81
137 142 146 138 134 127 119 110 97 93 93 94 90 76 65 51 41 37 56 88 108 97 265 274 181 162 143 125 167 170 178 22 53 97 104 106 106 103 108 98 91 72 83
130 142 141 131 129 128 118 108 97 94 100 106 102 95 92 76 65 59 59 88 102 108 112 218 201 190 186 241 273 175 172 154 93 105 111 118 116 113 100 87 79 87 80
126 138 134 125 116 117 117 110 104 106 114 114 103 100 87 77 63 59 38 8 135 121 135 222 200 221 212 226 149 159 146 111 98 111 122 127 124 105 114 104 102 100 94
125 134 129 119 113 113 114 114 111 115 123 114 107 102 94 93 79 57 37 351 64 87 194 208 215 221 200 190 169 157 131 116 110 123 119 144 136 114 121 118 113 107 103
126 131 125 119 122 118 116 117 121 126 121 114 108 104 106 113 119 112 152 183 76 95 193 204 199 188 175 179 175 166 125 111 114 119 124 131 122 114 113 111 107 110 102
126 136 126 127 129 124 127 127 128 123 118 114 113 108 114 119 128 137 142 150 152 125 222 191 178 182 188 187 168 134 110 108 118 111 114 122 128 108 107 104 96 109 89
124 136 134 134 134 127 126 119 119 116 114 112 115 114 116 120 124 129 131 131 141 136 159 173 177 186 196 198 11 104 102 94 110 98 96 91 96 101 96 99 96 92 88
124 135 133 135 134 127 133 122 113 111 117 112 113 119 120 125 124 122 127 123 124 146 168 179 184 189 194 211 152 90 90 93 105 92 89 87 87 88 102 107 103 101 100
127 128 130 141 138 143 138 116 114 114 111 113 116 121 121 126 130 130 130 128 131 142 161 171 179 174 182 196 142 108 96 97 103 84 84 88 99 109 115 121 125 117 116
131 133 139 140 141 146 140 123 117 120 112 111 131 131 120 126 130 131 139 127 122 121 157 165 155 156 106 186 82 101 101 110 93 82 97 99 119 121 123 129 130 133 134
138 140 139 140 140 146 144 129 126 127 123 147 151 131 134 144 128 128 128 138 136 141 181 199 211 185 169 180 168 108 107 120 124 134 142 129 136 137 143 144 139 139 139
141 142 144 142 144 147 145 130 131 133 134 135 133 132 140 151 177 166 153 166 167 150 184 213 175 156 172 179 147 128 131 136 139 151 155 145 138 149 151 145 145 146 144
145 146 147 150 148 153 147 135 133 135 138 138 142 126 126 119 132 205 209 185 164 161 183 181 164 171 168 161 158 151 143 141 145 152 148 148 153 152 152 151 150 150 148
149 149 149 153 156 154 151 141 136 139 144 149 144 140 130 139 138 155 195 191 200 182 175 186 172 166 166 166 164 152 149 145 144 149 154 155 155 155 155 154 152 151 149
155 154 149 157 159 153 152 151 143 143 148 152 153 153 148 146 144 156 172 173 178 181 177 183 176 171 178 185 167 144 144 149 150 153 156 160 157 157 158 156 154 154 154
157 157 151 159 161 159 155 158 151 150 152 158 160 157 153 147 145 151 168 165 184 181 187 189 184 191 185 181 165 151 153 155 158 163 162 156 156 158 160 159 159 158 158
157 158 159 166 163 163 163 168 166 159 153 159 159 161 158 158 149 158 176 175 173 178 185 180 179 181 179 177 172 160 162 163 166 164 160 159 160 162 163 165 163 160 158
161 158 163 167 165 163 175 179 174 169 160 160 161 162 164 164 163 160 164 166 169 172 175 182 177 170 176 174 170 172 176 173 176 169 164 165 166 165 162 163 161 161 164
165 161 157 166 167 159 154 166 167 169 173 162 162 164 166 164 171 163 160 164 165 171 173 173 167 168 180 175 184 193 185 188 182 179 176 173 169 167 163 159 163 169 172
167 164 159 161 169 154 133 152 171 169 171 168 170 168 169 168 163 154 157 164 166 169 171 166 183 181 185 183 185 186 184 182 182 183 179 177 175 172 173 175 176 181 177
163 169 164 163 165 162 150 163 185 171 179 175 167 169 166 167 163 153 155 160 156 166 170 166 171 181 189 180 178 175 183 187 182 176 176 179 181 183 187 188 184 180 178
164 168 169 165 167 170 159 180 220 203 208 183 179 176 167 162 163 158 159 158 155 158 152 163 173 178 177 180 179 177 182 175 184 183 181 181 186 187 188 184 181 182 179
170 167 173 169 167 175 165 177 180 181 187 187 182 173 170 166 163 156 157 160 159 169 164 161 169 178 182 182 192 190 186 181 173 171 194 186 187 183 182 181 178 177 177
172 170 170 178 170 173 165 172 183 189 197 196 187 175 175 171 167 160 154 157 159 168 175 174 176 176 183 199 200 200 203 195 190 181 180 189 192 184 181 178 180 181 183
177 184 173 173 178 171 169 168 180 185 190 202 197 181 179 174 170 169 162 164 165 167 169 176 180 184 198 208 211 207 207 198 199 192 178 178 177 187 191 192 192 191 191